Regional Weather Roundup
Issued by NWS Grand Forks, ND

Home | Current Version | Previous Version | Text Only | Print | Product List | Glossary On
Versions: 1 2 3 4 5 6 7 8 9 10 11 12 13 14 15 16 17 18 19 20 21 22 23 24 25 26 27 28 29 30 31 32 33 34 35 36 37 38 39 40 41 42 43 44 45 46 47 48 49 50
000
ASUS43 KFGF 280110
RWRFGF
PRAIRIE TO PINES  WEATHER ROUNDUP
NATIONAL WEATHER SERVICE EASTERN NORTH DAKOTA/GRAND FORKS ND
800 PM CDT THU AUG 27 2015

 **SATELLITE DATA USED TO AUGMENT SKY COVER AT AUTOMATED STATIONS**
 *****  WEATHER ACROSS EASTERN NORTH DAKOTA  *****

CITY           SKY/WX    TMP DP  RH WIND       PRES   REMARKS
GRAND FORKS    MOCLDY    72  65  78 S3        29.89F
GRAND FRKS AFB MOCLDY    73  65  77 E3        29.89F
GRAND FRKS NWS   N/A     73 N/A N/A SW2         N/A
DEVILS LAKE    CLEAR     73  63  68 SE5       29.89S
FARGO          MOCLDY    75  66  73 SE3       29.90F
WAHPETON ARPT  CLOUDY    72  63  73 SE5       29.92F
$$

 ***** WEATHER ACROSS CENTRAL AND WESTERN NORTH DAKOTA  *****

CITY           SKY/WX    TMP DP  RH WIND       PRES   REMARKS
BISMARCK       CLEAR     77  64  64 S10       29.91F
MINOT          CLEAR     76  66  71 CALM      29.86F
JAMESTOWN      PTCLDY    74  69  85 CALM      29.91F
MINOT AFB      CLEAR     76  70  81 SE5       29.85F
GARRISON         N/A     76  66  71 SE5       29.89S
WILLISTON      PTCLDY    81  65  58 SW3       29.87F
DICKINSON      CLEAR     77  59  53 SE7       29.90F
HETTINGER      PTCLDY    76  57  51 SE12      29.95S
$$

 *****  OTHER AIRPORT OBSERVATIONS IN OUR AREA  *****

CITY           SKY/WX    TMP DP  RH WIND       PRES   REMARKS
WALHALLA       FAIR      75  66  73 MISG      29.87S
GRAFTON AIRPOR FAIR      72  66  83 S7        29.90S
VALLEY CITY AR FAIR      73  73 100 S3        29.92S
CANDO          NOT AVBL
CAVALIER APRT  FAIR      73  63  68 S7        29.88F
GWINNER          N/A     73  73 100 S7        29.92F
ROLLA          FAIR      70  63  78 SW8       29.89F
 ***** THE ABOVE OBSERVATIONS ARE NON NWS ARE NOT QUALITY
       CONTROLLED AND MAY MIS-REPORT RAIN FOR SNOW...
$$

  *****  WEATHER ACROSS NORTHERN MINNESOTA  *****

CITY           SKY/WX    TMP DP  RH WIND       PRES   REMARKS
FLAG ISLAND    CLEAR     70  63  78 CALM      29.90F HAZE
WARROAD        CLEAR     66  63  88 CALM      29.92F
ROSEAU         CLEAR     70  63  78 CALM      29.91F
HALLOCK        CLEAR     73  61  64 S5        29.89S
THF RVR FALLS  PTCLDY   N/A N/A N/A SW3       29.91F
BAUDETTE       CLEAR     69  61  75 S6        29.92F
WASKISH        CLOUDY    72  64  78 CALM      29.94S
CROOKSTON      PTCLDY    72  64  78 S5        29.91F
STEPHEN NDAWN    N/A     72  64  78 SE3         N/A
GREENBUSH NDAW   N/A     70  64  83 S2          N/A
$$
  *****  WEATHER ACROSS CENTRAL AND WEST MINNESOTA  *****

CITY           SKY/WX    TMP DP  RH WIND       PRES   REMARKS
FOSSTON        MOCLDY    70  63  78 S5        29.94S
BEMIDJI        PTCLDY    70  64  82 S5        29.94F
PARK RAPIDS    CLOUDY    72  64  76 S6        29.95F
ELBOW LAKE     FAIR      70  66  88 SE3       29.93F
WADENA         CLOUDY    70  63  78 S3        29.96R
DETROIT LAKES  CLOUDY    70  64  83 CALM      29.95S
MOORHEAD       MOCLDY    75  66  73 CALM      29.92S
FERGUS FALLS   CLOUDY    72  64  78 SE3       29.93S
MORRIS MN      CLOUDY    72  70  94 SE6       29.94S
STAPLES        CLOUDY    70  63  78 CALM      29.96S
$$
  *****  WEATHER ELSEWHERE ACROSS MINNESOTA  *****

CITY           SKY/WX    TMP DP  RH WIND       PRES   REMARKS
DULUTH         PTCLDY    60  52  74 SE6       30.00F
INTRNTL FALLS  MOCLDY    68  60  75 SE3       29.94F
ELY            PTCLDY    66  57  72 S5        29.99S
CLOQUET        MOCLDY    61  54  77 E3        30.00S
WHEATON        CLOUDY    66  64  94 SE5       29.94F
BRAINERD       CLOUDY    69  63  81 SE3       29.97F
HIBBING        CLOUDY    68  60  75 SE5       29.98F
ALEXANDRIA     CLOUDY    71  66  84 S6        29.97F
SAINT CLOUD    MOCLDY    68  62  81 S7        29.98S
MINNEAPOLIS    MOCLDY    71  58  63 VRB7      30.01S
$$

  *****  WEATHER ACROSS SOUTH DAKOTA  *****

CITY           SKY/WX    TMP DP  RH WIND       PRES   REMARKS
SIOUX FALLS    TSTM      69  64  84 VRB7      29.95R
BROOKINGS      CLOUDY    72  64  78 SE13      29.98F
WATERTOWN      LGT RAIN  72  67  84 S9        29.96S
HURON          LGT RAIN  74  68  81 E10       29.91F
SISSETON         N/A     72  67  84 CALM      29.92S
ABERDEEN       CLOUDY    72  68  87 N3        29.93F
MITCHELL       LGT RAIN  71  69  93 E8        29.91S
PIERRE         CLOUDY    70  66  87 NE14      29.89F
MOBRIDGE       PTCLDY    71  67  87 CALM      29.91F
RAPID CITY     CLEAR     72  62  71 SE5       30.00S
$$

  *****  SOME WEATHER IN NEARBY STATES *****

CITY           SKY/WX    TMP DP  RH WIND       PRES   REMARKS
GLASGOW MT     PTCLDY    85  56  37 S6        29.85F
GREAT FALLS MT CLOUDY    82  38  20 SW7       29.96S HAZE
CHEYENNE WY    PTCLDY    72  49  44 N12       30.19R
SCOTTSBLUFF NE PTCLDY    76  56  49 N8        30.03F
OMAHA NE       MOCLDY    77  67  71 SE12      29.91R
DES MOINES IA  MOCLDY    71  61  70 E12       30.01R
DAVENPORT IA   MOCLDY    65  60  84 NW3       30.13R
CHICAGO IL     CLOUDY    66  54  65 E7        30.12S
EAU CLAIRE WI  MOCLDY    68  58  70 SE7       30.04S
LA CROSSE WI   CLOUDY    71  59  65 SE7       30.04F
$$

  *****  SOME NATIONAL WEATHER *****

CITY           SKY/WX    TMP DP  RH WIND       PRES   REMARKS
LA GUARDIA NY  PTCLDY    74  52  46 NW14      30.08R
RALEIGH NC     MOCLDY    74  59  59 E5        30.09R
ATLANTA GA     PTCLDY    79  63  57 NE9       30.05R
NEW ORLEANS LA PTCLDY    82  57  42 CALM      29.96S
OKLAHOMA CITY  CLOUDY    85  67  54 S9        29.96S
ALBUQUERQUE NM CLOUDY    81  55  40 S14       30.17S
SALT LAKE CITY FAIR      86  45  23 NW8       30.13F
LOS ANGELES CA MOSUNNY   79  65  62 W12       29.88S
BOISE ID       SUNNY     91  36  14 N9        30.02F
SEATTLE WA     PTSUNNY   82  45  27 S6        29.98F
$$

*** WEATHER ACROSS MANITOBA...SASKATCHEWAN AND ONTARIO ***
                ***ONTARIO***

CITY           SKY/WX    TMP DP  RH WIND       PRES   REMARKS
GERALDTON      PTCLDY    57  48  72 SW10      29.98S
THUNDER BAY    MOCLDY    61  46  59 SW3       29.99S
SIOUX LOOKOUT  MOCLDY    61  55  82 S3        29.94S
TORONTO        MOCLDY    64  54  68 NW5       30.16R
BIG TROUT LK   CLOUDY    55  54  94 NE3       29.88R
PICKLE LAKE    CLOUDY    68  52  56 SW8       29.89R
DRYDEN         CLEAR     66  55  68 SW5       29.94S
KENORA           N/A     66  55  68 S6        29.92F
$$
                *** MANITOBA***

CITY           SKY/WX    TMP DP  RH WIND       PRES   REMARKS
BRANDON        PTCLDY    75  63  64 CALM      29.84F
DAUPHIN        CLEAR     70  64  83 SE3       29.81F
ISLAND LAKE    MOCLDY    63  55  77 NE2       29.85F
PILOT MOUND      N/A     70  63  78 S7          N/A
THE PAS        MOCLDY    68  57  68 E5        29.79F
THOMPSON       PTCLDY    63  52  67 S2        29.81F
WINNIPEG       CLEAR     73  63  68 S9        29.86F
LYNN LAKE      PTCLDY    61  46  59 MISG      29.78S
CHURCHILL      MOCLDY    52  48  87 NE12G18   29.76F
GILLAM         MOCLDY    61  48  63 SW5       29.82F
$$
                ***SASKATCHEWAN***

CITY           SKY/WX    TMP DP  RH WIND       PRES   REMARKS
ESTEVAN        MOCLDY    75  59  57 S5        29.85F
KINDERSLEY     NOT AVBL
LLOYDMINSTER   PTSUNNY   73  57  56 W7        29.82S
PRINCE ALBERT  MOCLDY    68  61  77 S2        29.80F
REGINA         CLOUDY    77  64  65 S7        29.78F
YORKTON        LGT RAIN  72  64  78 E6        29.80F
N. BATTLEFORD  SUNNY     75  54  46 CALM      29.82F
LA RONGE       MOCLDY    70  55  60 SE7       29.76F
SASKATOON      CLOUDY    72  59  64 S2        29.83F
SWIFT CURRENT  CLEAR     77  52  41 W8        29.84F
$$
NOTE: THESE ARE AUTOMATED STATIONS WITH LIMITED QUALITY CONTROL
      "FAIR" INDICATES FEW OR NO CLOUDS BELOW 12,000 FEET WITH NO
      SIGNIFICANT WEATHER AND/OR OBSTRUCTIONS TO VISIBILITY.
      SKY/WX - SKY CONDITION AND SIGNIFICANT WEATHER.
      TMP - AIR TEMPERATURE.    DP   - DEWPOINT TEMPERATURE.
      RH  - RELATIVE HUMIDITY.  PRES - PRESSURE.
      HX  - HEAT INDEX.         WCI  - WIND CHILL INDEX.
$



USA.gov is the U.S. government's official web portal to all federal, state and local government web resources and services.